| time (UTC) | temp C | wind direction | speed KPH | gust KPH | rain 1hr cm | rain 24hr cm | rain mn cm | humidity % | barometer mb |
| 20260508203005 | 20 | 0 | 0.0 | 0.0 | 0.00 | 0.00 | 0.00 | 41 | 1011.5 |
| 20260508202004 | 20 | 0 | 0.0 | 0.0 | 0.00 | 0.00 | 0.00 | 41 | 1011.5 |
| 20260508201004 | 20 | 0 | 0.0 | 0.0 | 0.00 | 0.00 | 0.00 | 44 | 1012.5 |
| 20260508200004 | 20 | 0 | 0.0 | 0.0 | 0.00 | 0.00 | 0.00 | 44 | 1012.8 |
| 20260508195004 | 19 | 0 | 0.0 | 0.0 | 0.00 | 0.00 | 0.00 | 42 | 1012.8 |
| 20260508194005 | 19 | 0 | 0.0 | 0.0 | 0.00 | 0.00 | 0.00 | 40 | 1012.8 |
| 20260508193005 | 19 | 0 | 0.0 | 0.0 | 0.00 | 0.00 | 0.00 | 40 | 1013.2 |
| 20260508192005 | 19 | 0 | 0.0 | 0.0 | 0.00 | 0.00 | 0.00 | 44 | 1013.5 |
| 20260508191005 | 18 | 0 | 0.0 | 0.0 | 0.00 | 0.00 | 0.00 | 43 | 1013.5 |
| 20260508190004 | 18 | 0 | 0.0 | 0.0 | 0.00 | 0.00 | 0.00 | 46 | 1013.8 |
| 20260508185004 | 18 | 0 | 0.0 | 0.0 | 0.00 | 0.00 | 0.00 | 42 | 1013.8 |
| 20260508184004 | 18 | 0 | 0.0 | 0.0 | 0.00 | 0.00 | 0.00 | 46 | 1014.2 |
| 20260508183005 | 18 | 0 | 0.0 | 0.0 | 0.00 | 0.00 | 0.00 | 50 | 1014.2 |
| 20260508182005 | 18 | 0 | 0.0 | 0.0 | 0.00 | 0.00 | 0.00 | 45 | 1014.4 |
| 20260508181005 | 17 | 0 | 0.0 | 0.0 | 0.00 | 0.00 | 0.00 | 47 | 1014.5 |
| 20260508180004 | 18 | 0 | 0.0 | 0.0 | 0.00 | 0.00 | 0.00 | 47 | 1014.5 |
| 20260508175004 | 17 | 0 | 0.0 | 0.0 | 0.00 | 0.00 | 0.00 | 53 | 1014.5 |
| 20260508174004 | 17 | 0 | 0.0 | 0.0 | 0.00 | 0.00 | 0.00 | 53 | 1014.9 |
| 20260508173005 | 17 | 0 | 0.0 | 0.0 | 0.00 | 0.00 | 0.00 | 54 | 1015.2 |
| 20260508172005 | 17 | 0 | 0.0 | 0.0 | 0.00 | 0.00 | 0.00 | 56 | 1015.2 |
| 20260508171004 | 16 | 0 | 0.0 | 0.0 | 0.00 | 0.00 | 0.00 | 55 | 1015.5 |
| 20260508170005 | 17 | 0 | 0.0 | 0.0 | 0.00 | 0.00 | 0.00 | 53 | 1015.5 |
| 20260508163005 | 16 | 0 | 0.0 | 0.0 | 0.00 | 0.00 | 0.00 | 56 | 1016.2 |
| 20260508162005 | 15 | 0 | 0.0 | 0.0 | 0.00 | 0.00 | 0.00 | 54 | 1016.5 |
| 20260508161005 | 15 | 0 | 0.0 | 0.0 | 0.00 | 0.00 | 0.00 | 56 | 1016.5 |
| 20260508155009 | 14 | 0 | 0.0 | 0.0 | 0.00 | 0.00 | 0.00 | 56 | 1016.9 |
| 20260508154005 | 14 | 0 | 0.0 | 0.0 | 0.00 | 0.00 | 0.00 | 56 | 1016.9 |
| 20260508153004 | 14 | 0 | 0.0 | 0.0 | 0.00 | 0.00 | 0.00 | 55 | 1016.9 |
| 20260508152005 | 15 | 0 | 0.0 | 0.0 | 0.00 | 0.00 | 0.00 | 54 | 1016.9 |
| 20260508151005 | 14 | 0 | 0.0 | 0.0 | 0.00 | 0.00 | 0.00 | 59 | 1016.9 |
| 20260508145005 | 13 | 0 | 0.0 | 0.0 | 0.00 | 0.00 | 0.00 | 62 | 1017.2 |
| 20260508144005 | 12 | 0 | 0.0 | 0.0 | 0.00 | 0.00 | 0.00 | 67 | 1016.9 |
| 20260508142005 | 12 | 0 | 0.0 | 0.0 | 0.00 | 0.00 | 0.00 | 68 | 1016.9 |
| 20260508141005 | 12 | 0 | 0.0 | 0.0 | 0.00 | 0.00 | 0.00 | 76 | 1016.9 |
| 20260508135004 | 11 | 0 | 0.0 | 0.0 | 0.00 | 0.00 | 0.00 | 80 | 1016.9 |
| 20260508134005 | 10 | 0 | 0.0 | 0.0 | 0.00 | 0.00 | 0.00 | 82 | 1016.9 |
| 20260508131005 | 8 | 0 | 0.0 | 0.0 | 0.00 | 0.00 | 0.00 | 86 | 1016.5 |
| 20260508130005 | 7 | 0 | 0.0 | 0.0 | 0.00 | 0.00 | 0.00 | 84 | 1016.6 |
| 20260508125005 | 7 | 0 | 0.0 | 0.0 | 0.00 | 0.00 | 0.00 | 88 | 1016.5 |
| 20260508123005 | 6 | 0 | 0.0 | 0.0 | 0.00 | 0.00 | 0.00 | 91 | 1016.5 |
| 20260508122005 | 5 | 0 | 0.0 | 0.0 | 0.00 | 0.00 | 0.00 | 91 | 1016.5 |
| 20260508121005 | 5 | 0 | 0.0 | 0.0 | 0.00 | 0.00 | 0.00 | 91 | 1016.2 |
| 20260508120005 | 4 | 0 | 0.0 | 0.0 | 0.00 | 0.00 | 0.00 | 92 | 1016.5 |
| 20260508113005 | 2 | 0 | 0.0 | 0.0 | 0.00 | 0.00 | 0.00 | 91 | 1016.2 |
| 20260508112005 | 1 | 0 | 0.0 | 0.0 | 0.00 | 0.00 | 0.00 | 91 | 1015.9 |
| 20260508111005 | 1 | 0 | 0.0 | 0.0 | 0.00 | 0.03 | 0.00 | 91 | 1015.5 |
| 20260508110005 | 1 | 0 | 0.0 | 0.0 | 0.00 | 0.03 | 0.00 | 91 | 1015.9 |
| 20260508105006 | 1 | 0 | 0.0 | 0.0 | 0.00 | 0.03 | 0.00 | 91 | 1015.5 |
| 20260508103006 | 1 | 0 | 0.0 | 0.0 | 0.00 | 0.03 | 0.00 | 91 | 1015.2 |
| 20260508101006 | 2 | 0 | 0.0 | 0.0 | 0.00 | 0.03 | 0.00 | 90 | 1015.2 |
| 20260508100005 | 2 | 0 | 0.0 | 0.0 | 0.00 | 0.03 | 0.00 | 90 | 1015.2 |
| 20260508095005 | 2 | 0 | 0.0 | 0.0 | 0.00 | 0.03 | 0.00 | 90 | 1015.0 |
| 20260508093005 | 3 | 0 | 0.0 | 0.0 | 0.00 | 0.03 | 0.00 | 90 | 1015.2 |
| 20260508092006 | 3 | 0 | 0.0 | 0.0 | 0.00 | 0.03 | 0.00 | 90 | 1015.2 |
| 20260508091005 | 3 | 0 | 0.0 | 0.0 | 0.00 | 0.03 | 0.00 | 90 | 1015.2 |
| 20260508085005 | 3 | 0 | 0.0 | 0.0 | 0.00 | 0.03 | 0.00 | 89 | 1014.9 |
| 20260508082005 | 3 | 0 | 0.0 | 0.0 | 0.00 | 0.03 | 0.00 | 88 | 1014.9 |
| 20260508081005 | 3 | 0 | 0.0 | 0.0 | 0.00 | 0.03 | 0.00 | 88 | 1014.9 |
| 20260508080005 | 4 | 0 | 0.0 | 0.0 | 0.00 | 0.03 | 0.00 | 88 | 1014.9 |
| 20260508074005 | 4 | 0 | 0.0 | 0.0 | 0.00 | 0.03 | 0.00 | 87 | 1014.9 |
| 20260508073005 | 5 | 0 | 0.0 | 0.0 | 0.00 | 0.03 | 0.00 | 87 | 1015.2 |
| 20260508072005 | 5 | 0 | 0.0 | 0.0 | 0.00 | 0.03 | 0.00 | 88 | 1015.1 |
| 20260508071005 | 5 | 0 | 0.0 | 0.0 | 0.00 | 0.03 | 0.00 | 87 | 1014.9 |
| 20260508070006 | 5 | 0 | 0.0 | 0.0 | 0.00 | 0.03 | 0.00 | 87 | 1014.9 |
| 20260508065006 | 5 | 0 | 0.0 | 0.0 | 0.00 | 0.05 | 0.00 | 87 | 1014.9 |
| 20260508064005 | 5 | 0 | 0.0 | 0.0 | 0.00 | 0.08 | 0.00 | 86 | 1014.9 |
| 20260508063010 | 5 | 0 | 0.0 | 0.0 | 0.00 | 0.08 | 0.00 | 86 | 1014.9 |
| 20260508062005 | 5 | 0 | 0.0 | 0.0 | 0.00 | 0.10 | 0.00 | 85 | 1014.9 |
| 20260508060005 | 5 | 0 | 0.0 | 0.0 | 0.00 | 0.10 | 0.00 | 84 | 1015.2 |
| 20260508055005 | 6 | 0 | 0.0 | 0.0 | 0.00 | 0.10 | 0.00 | 84 | 1014.9 |
| 20260508054006 | 6 | 0 | 0.0 | 0.0 | 0.00 | 0.10 | 0.00 | 83 | 1015.2 |
| 20260508053005 | 6 | 0 | 0.0 | 0.0 | 0.00 | 0.10 | 0.00 | 83 | 1015.2 |
| 20260508052005 | 6 | 0 | 0.0 | 0.0 | 0.00 | 0.10 | 0.00 | 82 | 1015.2 |
| 20260508051005 | 6 | 0 | 0.0 | 0.0 | 0.00 | 0.10 | 0.00 | 81 | 1015.2 |
| 20260508050005 | 6 | 0 | 0.0 | 0.0 | 0.00 | 0.10 | 0.00 | 81 | 1015.2 |
| 20260508044005 | 7 | 0 | 0.0 | 0.0 | 0.00 | 0.10 | 0.00 | 80 | 1014.9 |
| 20260508043005 | 7 | 0 | 0.0 | 0.0 | 0.00 | 0.10 | 0.00 | 80 | 1014.9 |
| 20260508041006 | 8 | 0 | 0.0 | 0.0 | 0.00 | 0.15 | 0.00 | 78 | 1014.5 |
| 20260508040006 | 8 | 0 | 0.0 | 0.0 | 0.00 | 0.15 | 0.00 | 76 | 1014.5 |
| 20260508034005 | 8 | 0 | 0.0 | 0.0 | 0.00 | 0.15 | 0.15 | 76 | 1014.5 |
| 20260508033006 | 8 | 0 | 0.0 | 0.0 | 0.00 | 0.15 | 0.15 | 76 | 1014.5 |
| 20260508032005 | 8 | 0 | 0.0 | 0.0 | 0.00 | 0.20 | 0.15 | 76 | 1014.5 |
| 20260508030006 | 8 | 0 | 0.0 | 0.0 | 0.00 | 0.20 | 0.15 | 75 | 1014.5 |
| 20260508025006 | 9 | 0 | 0.0 | 0.0 | 0.00 | 0.20 | 0.15 | 74 | 1014.2 |
| 20260508023006 | 10 | 0 | 0.0 | 0.0 | 0.00 | 0.20 | 0.15 | 72 | 1013.8 |
| 20260508022006 | 10 | 0 | 0.0 | 0.0 | 0.00 | 0.20 | 0.15 | 72 | 1013.8 |
| 20260508021006 | 10 | 0 | 0.0 | 0.0 | 0.00 | 0.20 | 0.15 | 72 | 1013.8 |
| 20260508020005 | 10 | 0 | 0.0 | 0.0 | 0.00 | 0.20 | 0.15 | 70 | 1013.5 |
| 20260508015006 | 11 | 0 | 0.0 | 0.0 | 0.00 | 0.20 | 0.15 | 71 | 1013.5 |
| 20260508014006 | 11 | 0 | 0.0 | 0.0 | 0.00 | 0.20 | 0.15 | 70 | 1013.2 |
| 20260508013007 | 11 | 0 | 0.0 | 0.0 | 0.00 | 0.23 | 0.15 | 70 | 1012.8 |
| 20260508012005 | 11 | 0 | 0.0 | 0.0 | 0.00 | 0.23 | 0.15 | 69 | 1012.8 |
| 20260508011005 | 11 | 0 | 0.0 | 0.0 | 0.00 | 0.25 | 0.15 | 69 | 1012.5 |
| 20260508010006 | 12 | 0 | 0.0 | 0.0 | 0.00 | 0.25 | 0.15 | 67 | 1012.1 |
| 20260508005007 | 12 | 0 | 0.0 | 0.0 | 0.00 | 0.25 | 0.15 | 67 | 1011.8 |
| 20260508004005 | 12 | 0 | 0.0 | 0.0 | 0.00 | 0.28 | 0.15 | 65 | 1011.8 |
| 20260508003006 | 12 | 0 | 0.0 | 0.0 | 0.00 | 0.28 | 0.15 | 65 | 1011.5 |
| 20260508002007 | 13 | 0 | 0.0 | 0.0 | 0.00 | 0.28 | 0.15 | 66 | 1011.5 |
| 20260508001006 | 13 | 0 | 0.0 | 0.0 | 0.00 | 0.28 | 0.15 | 66 | 1011.5 |
| 20260508000005 | 13 | 0 | 0.0 | 0.0 | 0.00 | 0.28 | 0.15 | 65 | 1011.5 |
| 20260507235006 | 13 | 0 | 0.0 | 0.0 | 0.00 | 0.28 | 0.15 | 63 | 1011.5 |
| 20260507234005 | 14 | 0 | 0.0 | 0.0 | 0.00 | 0.28 | 0.15 | 64 | 1011.5 |
| 20260507232007 | 14 | 0 | 0.0 | 0.0 | 0.00 | 0.28 | 0.15 | 64 | 1011.5 |
| 20260507231007 | 15 | 0 | 0.0 | 0.0 | 0.00 | 0.28 | 0.15 | 62 | 1011.5 |
| 20260507230007 | 15 | 0 | 0.0 | 0.0 | 0.00 | 0.30 | 0.15 | 62 | 1011.5 |
| 20260507225007 | 15 | 0 | 0.0 | 0.0 | 0.00 | 0.36 | 0.15 | 62 | 1011.5 |
| 20260507224007 | 15 | 0 | 0.0 | 0.0 | 0.00 | 0.71 | 0.15 | 64 | 1011.5 |
| 20260507222007 | 15 | 0 | 0.0 | 0.0 | 0.00 | 0.81 | 0.15 | 63 | 1011.5 |
| 20260507221005 | 15 | 0 | 0.0 | 0.0 | 0.00 | 0.81 | 0.15 | 66 | 1011.1 |
| 20260507220004 | 15 | 0 | 0.0 | 0.0 | 0.00 | 0.81 | 0.15 | 68 | 1011.1 |
| 20260507215004 | 15 | 0 | 0.0 | 0.0 | 0.00 | 0.81 | 0.15 | 68 | 1011.1 |
| 20260507212004 | 15 | 0 | 0.0 | 0.0 | 0.00 | 0.81 | 0.15 | 69 | 1011.1 |
| 20260507211005 | 15 | 0 | 0.0 | 0.0 | 0.00 | 0.81 | 0.15 | 67 | 1011.1 |
| 20260507210005 | 15 | 0 | 0.0 | 0.0 | 0.00 | 0.81 | 0.15 | 68 | 1011.1 |
| 20260507205004 | 16 | 0 | 0.0 | 0.0 | 0.00 | 0.81 | 0.15 | 66 | 1011.1 |
| 20260507204005 | 16 | 0 | 0.0 | 0.0 | 0.00 | 0.81 | 0.15 | 65 | 1010.8 |